COSMOS 1086

Satellite information

Favourite Embed

Satellite Type and Status

PAYLOADIN ORBIT

Key statistics

Satellite COSMOS 1086 at a glance.

Uptime

16918

Days in orbit

Revolutions

≈ 12.5

Per day

Orbit

LEO

Low Earth Orbit

Inclination

74.0

Latest

Satellite identification and parameters

Extended collection of information and parameters for COSMOS 1086.

Object identification

Identified? True

Debris? False

Object name: COSMOS 1086

International designator: 1979-024F

Object number (NORAD): 11301

Object ID (CCSDS): 11301

Country: COMMONWEALTH OF INDEPENDENT STATES (CIS)

Current information (Y/N): Y

RCS size: MEDIUM

Orbital parameters

Period: 115.396 minutes

Inclination: 74.032 deg

SMA: 7851.522 km

Apoapsis: 1481.504 km

Periapsis: 1465.27 km

RAAN: 163.1527 deg

Eccentricy: 0.0010338

Argument of periapsis: 151.255 deg

Mean anomaly: 22.8159 deg

Mean motion: 12.478775 rev/day

Mean motion (dot): -0.00000017 rev/day2

B* drag term: -0.0000087207 1/REarth

Two-line elements (TLE)

Creation date: July 9, 2025, 2:22 a.m.

Reference frame: TEME

Reference center: EARTH

Epoch: July 8, 2025, 3:36 p.m. UTC

TLE line 0: 0 COSMOS 1086

TLE line 1: 1 11301U 79024F 25189.65047918 -.00000017 00000-0 -87207-5 0 9992

TLE line 2: 2 11301 74.0320 163.1527 0010338 151.2550 22.8159 12.47877500109797

Live tracking on map

Real-time ground track for satellite COSMOS 1086.

In-orbit conjunctions

There are no conjunctions computed for COSMOS 1086, at the moment. Check back to stay up to date, as we update our databases every day.

Go to all conjunctions

Associated space launch

Military communications satellites

COSMOS 1086 was lifted into orbit during the mission ‘Kosmos-3M | Strela-1M 169-176’, on board a Kosmos-3M space rocket.

The launch took place on March 15, 1979, 2:58 a.m. from 132/2.

For more information about the launch, click the button.

Launch to space Kosmos-3M | Strela-1M 169-176
Kosmos-3M | Strela-1M 169-176

Agency: N/A

Status: Launch Successful

Launch date: March 15, 1979, 2:58 a.m. UTC

Rocket: Kosmos-3M

Launch pad: 132/2

Location: Plesetsk Cosmodrome, Russian Federation

...

Latest news about this satellite

There are no fresh news available about this satellite. Check back as we update our databases every day.


Newsletter sign-up

Weekly statistics, charts and insights to help you stay on top of the space industry.